Location: ??
(35.5052°N, 139.7262°E)
Time: 03:48:53
(UTC+00:00)

BREEZE-M DEB (TANK) - Pass Details

Date: 20 June 2021
Orbit: 373 x 20280 km, 49.3° (Epoch: 26 July)

Event Time Altitude Azimuth Distance (km) Brightness Sun altitude
Rises 16:10:45 0° 302° (WNW) 12,205 9.7 -27.5°
Reaches altitude 10° 16:24:04 10° 305° (NW) 7,865 8.7 -26.4°
Maximum altitude 16:41:09 72° 30° (NNE) 1,215 4.5 -24.7°
Drops below altitude 10° 16:45:13 10° 116° (ESE) 2,045 5.8 -24.3°
Sets 16:46:34 0° 119° (ESE) 2,662 6.4 -24.2°
